Temp
-3 -3 -4 -4 -3 -4 -4 -3 -3 -3 -3 -3 -4 -4 -4 -4 -4 -4 -4 -3 -4 -4 -3 -3 -2 -3 -2 -2 -2 -1 -1 1 1 2 3 5 4 6 6 7 3 5 4 3 4 4 5 9 8 10 11 10 12 10
-4 -4 -4 -4 -4 -4 -4 -4 -4 -4 -4 -4 -4 -4 -3 -3 -3 -3 -4 -3 -3 -4 -3 -3 -2 -2 -2 -2 -2 -2 -1 -1 1 -2 -0 -1 -1 0 3 4 6 6 7 5 6 7 8 9 10 11 11 12 11 11
-4 -4 -4 -4 -4 -4 -4 -4 -4 -4 -4 -4 -4 -4 -4 -4 -4 -4 -4 -4 -4 -4 -4 -4 -3 -1 -1 -2 -1 -3 -2 -1 -0 0 -0 0 0 1 1 2 3 4 7 7 7 7 7 9 10 11 11 12 12 11
-5 -5 -5 -4 -4 -4 -4 -4 -4 -4 -4 -4 -4 -4 -4 -4 -4 -4 -4 -4 -4 -4 -4 -3 -2 -2 -1 -2 -2 -1 -1 -1 -1 -1 -1 -1 -1 1 0 2 1 1 2 4 6 6 7 9 10 10 10 10 10 10
-5 -5 -5 -5 -5 -5 -4 -4 -4 -4 -4 -4 -4 -4 -4 -4 -4 -4 -4 -4 -4 -4 -4 -3 -2 -2 -2 -2 -1 -1 -1 -1 -2 -1 -1 -1 0 -1 -0 0 0 2 3 3 3 5 8 10 14 10 10 10 9 9
-5 -5 -5 -5 -5 -5 -4 -4 -4 -3 -3 -3 -3 -4 -3 -4 -4 -4 -5 -3 -2 -2 -4 -3 -2 -2 -1 -1 -1 -1 -2 -1 -2 -2 -1 -1 1 1 -1 -0 2 3 3 4 5 5 6 8 10 9 9 8 8 7
-5 -5 -5 -5 -4 -4 -4 -4 -4 -4 -4 -4 -4 -4 -4 -4 -4 -4 -4 -3 -3 -4 -4 -4 -3 -1 0 0 -1 -2 -2 -2 -1 -1 -0 -0 0 0 -0 -0 2 3 3 4 4 1 1 4 9 7 8 7 6 6
-5 -5 -5 -4 -4 -4 -4 -4 -5 -5 -4 -4 -4 -4 -4 -4 -3 -4 -2 -2 -4 -4 -3 -4 -4 -3 -1 -1 -1 -0 -2 -2 -2 -1 -0 -0 0 0 -1 1 2 2 2 3 3 4 3 3 5 6 6 6 5 5
-4 -5 -5 -4 -4 -5 -5 -5 -5 -4 -4 -4 -4 -4 -4 -3 -4 -3 -3 -3 -4 -4 -3 -3 -3 -3 -1 -1 -1 -1 -1 -2 -1 -1 -1 0 -0 -1 1 1 2 2 2 2 3 4 4 4 4 5 4 4 4 3
-4 -5 -4 -4 -5 -5 -5 -5 -5 -5 -4 -4 -4 -4 -5 -2 -3 -3 -4 -4 -4 -4 -4 -4 -2 -2 -1 -1 -2 -2 -2 -1 -1 -1 1 -1 -0 1 2 2 3 3 2 3 3 3 3 3 3 3 3 3 4 2
-5 -4 -4 -4 -5 -5 -5 -5 -5 -5 -5 -5 -5 -4 -4 -4 -5 -5 -5 -5 -4 -3 -4 -4 -4 -4 -3 -3 -2 -2 -1 -1 -0 -2 -1 -2 0 1 2 2 2 2 2 3 4 5 4 4 3 2 2 3 3 2
-4 -4 -5 -5 -5 -5 -5 -5 -5 -5 -5 -5 -5 -5 -6 -5 -5 -5 -5 -4 -3 -3 -4 -3 -4 -4 -3 -2 -1 -1 -1 -2 -2 -3 -2 -2 2 4 4 3 2 2 2 2 3 4 4 4 3 2 3 1 1 0
-5 -5 -5 -5 -5 -4 -4 -4 -4 -5 -5 -5 -5 -6 -6 -4 -6 -5 -4 -5 -5 -4 -4 -5 -5 -4 -3 -2 -1 -1 -0 -1 -3 -1 -1 -1 0 3 4 5 3 4 3 2 2 3 4 2 2 3 -0 -2 -2 -3
-5 -5 -5 -5 -5 -4 -4 -5 -4 -5 -5 -6 -6 -6 -7 -10 -5 -5 -5 -5 -5 -5 -6 -6 -6 -4 -3 -1 -1 -0 -3 -3 -2 -2 -4 -6 -2 -2 -1 0 2 4 3 2 2 2 0 -1 -2 -3 -3 -3 -4 -4
-5 -5 -5 -5 -4 -4 -4 -4 -5 -5 -6 -7 -7 -8 -11 -5 -5 -5 -6 -6 -6 -7 -7 -7 -6 -5 -4 -1 -2 -3 -3 -4 -2 -2 -3 -3 -3 -3 -2 -1 0 1 1 0 -1 -3 -4 -5 -5 -5 -4 -5 -2 -2
-5 -5 -5 -4 -5 -5 -5 -5 -5 -6 -7 -7 -6 -7 -5 -7 -7 -6 -7 -7 -7 -8 -7 -6 -6 -4 -2 -2 -3 -4 -3 -4 -3 -4 -5 -5 -6 -6 -6 -5 -6 -6 -6 -6 -7 -7 -6 -5 -5 -5 -4 -3 -3 -3
-6 -5 -5 -5 -5 -4 -5 -5 -6 -7 -6 -6 -6 -6 -7 -7 -7 -8 -8 -9 -9 -8 -7 -7 -4 -4 -4 -4 -4 -4 -4 -5 -6 -6 -7 -7 -7 -7 -7 -7 -7 -7 -7 -7 -6 -6 -5 -4 -4 -3 -4 -4 -4 -3
-5 -5 -5 -5 -5 -5 -5 -6 -7 -7 -6 -6 -7 -7 -7 -7 -8 -9 -10 -9 -9 -7 -6 -6 -7 -6 -6 -6 -5 -6 -6 -7 -7 -8 -8 -8 -8 -8 -8 -8 -7 -7 -7 -6 -6 -6 -5 -4 -3 -5 -4 -5 -4 -5
-6 -5 -5 -5 -5 -5 -6 -7 -7 -8 -7 -7 -7 -7 -8 -8 -9 -10 -10 -10 -8 -8 -8 -8 -9 -9 -8 -7 -8 -7 -7 -7 -8 -8 -8 -7 -7 -7 -7 -6 -6 -6 -6 -6 -4 -5 -5 -5 -5 -5 -5 -5 -5 -6
-6 -5 -5 -5 -5 -5 -6 -7 -7 -8 -8 -8 -8 -8 -7 -8 -9 -10 -11 -10 -10 -10 -10 -10 -10 -10 -10 -10 -7 -7 -7 -8 -8 -8 -9 -8 -7 -6 -7 -6 -7 -6 -6 -6 -6 -6 -6 -6 -6 -6 -6 -6 -6 -6
-5 -5 -5 -6 -6 -6 -6 -7 -7 -8 -8 -9 -8 -8 -8 -8 -9 -10 -11 -10 -11 -12 -12 -12 -11 -11 -11 -9 -8 -7 -8 -7 -8 -9 -9 -9 -8 -7 -7 -7 -6 -6 -6 -6 -6 -7 -6 -7 -7 -7 -7 -7 -7 -7
-6 -6 -6 -6 -6 -6 -7 -7 -7 -8 -9 -8 -8 -8 -9 -9 -10 -10 -10 -12 -13 -13 -14 -13 -12 -12 -9 -8 -8 -8 -8 -7 -7 -8 -8 -8 -7 -7 -7 -7 -6 -7 -7 -8 -7 -7 -8 -8 -8 -8 -8 -8 -8 -8
-6 -6 -6 -6 -6 -7 -8 -8 -8 -8 -10 -9 -8 -9 -10 -10 -10 -9 -12 -13 -13 -14 -14 -13 -12 -11 -10 -9 -7 -7 -8 -7 -7 -8 -8 -8 -8 -8 -7 -8 -8 -8 -8 -9 -9 -8 -8 -9 -9 -9 -9 -9 -9 -9
-6 -6 -6 -6 -7 -9 -8 -8 -9 -9 -9 -10 -9 -9 -10 -11 -9 -11 -12 -13 -14 -14 -13 -12 -11 -10 -9 -8 -9 -9 -9 -9 -9 -8 -8 -8 -8 -9 -9 -9 -9 -9 -10 -10 -10 -9 -10 -10 -10 -10 -10 -10 -10 -10
-6 -8 -8 -12 -9 -9 -17 -17 -17 -13 -13 -12 -10 -10 -11 -11 -11 -12 -12 -13 -14 -14 -13 -13 -12 -12 -12 -11 -11 -10 -10 -9 -9 -9 -10 -10 -10 -10 -10 -10 -10 -10 -11 -10 -10 -11 -11 -11 -11 -11 -11 -12 -11 -12
-14 -11 -14 -13 -13 -13 -15 -14 -16 -16 -16 -15 -13 -12 -11 -11 -12 -12 -13 -15 -15 -15 -14 -13 -13 -12 -11 -11 -11 -10 -11 -11 -10 -9 -11 -11 -11 -11 -11 -11 -11 -11 -12 -12 -12 -12 -12 -12 -12 -12 -12 -12 -12 -12
-14 -15 -11 -11 -11 -11 -11 -11 -11 -14 -18 -17 -15 -12 -12 -12 -13 -13 -14 -14 -15 -15 -14 -13 -13 -13 -13 -12 -12 -12 -12 -11 -11 -12 -13 -12 -12 -12 -12 -12 -12 -12 -13 -13 -13 -12 -12 -12 -12 -12 -12 -12 -12 -12
-12 -12 -14 -12 -11 -11 -13 -14 -16 -15 -15 -13 -13 -18 -16 -15 -14 -15 -15 -15 -14 -14 -13 -13 -13 -12 -12 -12 -13 -12 -12 -12 -12 -13 -13 -13 -13 -13 -13 -13 -13 -13 -13 -12 -12 -12 -12 -12 -12 -12 -12 -12 -12 -12
-12 -12 -12 -13 -12 -13 -14 -14 -14 -14 -15 -14 -17 -18 -17 -17 -16 -16 -15 -15 -15 -14 -13 -13 -12 -12 -12 -12 -12 -12 -12 -12 -12 -12 -12 -12 -12 -12 -13 -13 -13 -13 -13 -13 -12 -12 -12 -13 -12 -12 -12 -12 -12 -12
-13 -12 -12 -14 -16 -15 -14 -14 -15 -15 -15 -15 -16 -17 -17 -17 -16 -16 -15 -15 -14 -13 -13 -13 -13 -12 -12 -12 -12 -12 -12 -12 -12 -12 -13 -13 -13 -13 -13 -13 -13 -13 -13 -13 -13 -12 -12 -12 -12 -12 -12 -12 -12 -12
-12 -12 -12 -13 -15 -14 -14 -14 -14 -14 -14 -15 -15 -15 -16 -16 -16 -16 -15 -15 -14 -14 -14 -13 -13 -12 -12 -12 -12 -13 -13 -13 -14 -14 -14 -14 -14 -14 -14 -14 -14 -13 -13 -13 -12 -12 -12 -12 -12 -12 -12 -12 -12 -12
-12 -13 -13 -18 -14 -13 -13 -13 -13 -13 -14 -14 -15 -15 -15 -16 -16 -16 -16 -15 -15 -14 -14 -13 -13 -13 -13 -13 -13 -13 -13 -14 -14 -14 -13 -13 -13 -13 -13 -13 -13 -13 -12 -12 -12 -12 -12 -12 -12 -12 -12 -12 -12 -12
-13 -13 -14 -14 -14 -14 -14 -13 -13 -14 -14 -15 -15 -15 -15 -16 -16 -16 -16 -15 -15 -15 -14 -14 -14 -14 -13 -14 -14 -14 -14 -14 -14 -14 -13 -13 -13 -13 -13 -13 -13 -12 -12 -12 -12 -12 -12 -13 -12 -12 -12 -12 -12 -12
Height
1564 1566 1564 1561 1560 1558 1556 1554 1552 1550 1548 1546 1543 1542 1541 1539 1537 1536 1534 1535 1534 1525 1505 1511 1509 1509 1505 1502 1497 1494 1494 1490 1482 1475 1460 1446 1444 1440 1435 1426 1441 1439 1450 1449 1451 1453 1440 1406 1413 1410 1392 1389 1390 1394
1559 1559 1558 1556 1554 1552 1551 1548 1546 1544 1542 1541 1538 1536 1534 1532 1531 1530 1527 1527 1525 1519 1501 1502 1499 1498 1497 1492 1494 1491 1490 1491 1482 1480 1470 1467 1461 1461 1442 1429 1418 1425 1416 1427 1422 1410 1398 1397 1391 1391 1390 1387 1390 1393
1553 1553 1551 1550 1548 1546 1544 1542 1539 1537 1535 1533 1531 1529 1527 1525 1524 1524 1519 1517 1514 1506 1494 1486 1478 1479 1477 1479 1482 1482 1477 1479 1476 1477 1472 1466 1460 1453 1447 1431 1424 1418 1411 1408 1409 1393 1394 1392 1391 1391 1390 1391 1390 1391
1548 1547 1546 1544 1542 1540 1538 1535 1533 1530 1527 1525 1522 1521 1519 1517 1515 1514 1510 1508 1506 1499 1485 1467 1469 1462 1464 1470 1469 1469 1465 1468 1469 1470 1466 1460 1455 1449 1443 1437 1436 1437 1438 1420 1401 1394 1391 1389 1388 1389 1390 1390 1391 1391
1543 1541 1539 1537 1536 1534 1531 1528 1525 1522 1519 1516 1514 1511 1509 1507 1505 1502 1498 1493 1493 1494 1474 1459 1449 1450 1457 1458 1457 1457 1455 1454 1457 1456 1449 1442 1439 1444 1435 1435 1421 1420 1420 1419 1410 1402 1392 1381 1380 1382 1385 1385 1388 1389
1537 1535 1533 1531 1529 1526 1524 1521 1518 1514 1511 1508 1505 1502 1499 1497 1495 1492 1484 1477 1474 1474 1465 1448 1433 1434 1438 1439 1435 1434 1437 1441 1443 1437 1430 1430 1429 1432 1425 1416 1405 1406 1407 1406 1402 1402 1400 1388 1379 1378 1379 1382 1384 1388
1530 1529 1527 1524 1522 1519 1516 1513 1510 1507 1503 1500 1496 1493 1490 1488 1486 1484 1476 1467 1470 1470 1460 1442 1426 1417 1418 1418 1418 1419 1423 1425 1430 1425 1419 1416 1418 1421 1415 1405 1395 1395 1393 1393 1394 1399 1393 1391 1381 1378 1378 1380 1384 1388
1523 1521 1519 1517 1515 1513 1509 1506 1503 1499 1496 1491 1487 1483 1479 1476 1470 1462 1455 1455 1458 1458 1450 1432 1418 1413 1413 1410 1408 1407 1409 1412 1411 1407 1405 1400 1402 1407 1400 1388 1378 1379 1382 1383 1384 1388 1390 1390 1385 1379 1377 1379 1382 1385
1516 1514 1512 1510 1508 1505 1502 1499 1496 1492 1488 1483 1478 1473 1467 1461 1454 1448 1446 1446 1447 1449 1433 1420 1410 1403 1392 1395 1397 1398 1400 1397 1393 1388 1379 1394 1387 1376 1359 1355 1356 1361 1366 1368 1369 1373 1375 1375 1380 1379 1375 1377 1382 1387
1508 1507 1506 1504 1500 1498 1495 1492 1488 1484 1480 1474 1470 1465 1458 1452 1449 1445 1435 1430 1422 1420 1420 1403 1408 1394 1399 1396 1392 1390 1385 1382 1372 1366 1370 1368 1356 1340 1343 1349 1350 1351 1356 1360 1362 1363 1365 1367 1372 1374 1371 1373 1376 1387
1502 1500 1498 1497 1493 1490 1488 1484 1481 1477 1473 1469 1464 1458 1451 1445 1437 1431 1425 1420 1411 1407 1405 1399 1398 1397 1394 1390 1381 1384 1371 1366 1358 1357 1357 1350 1332 1329 1339 1337 1334 1339 1346 1347 1349 1348 1351 1354 1358 1362 1365 1372 1376 1384
1495 1493 1491 1489 1486 1483 1480 1477 1474 1471 1468 1465 1461 1452 1444 1438 1431 1425 1415 1409 1402 1399 1400 1398 1396 1392 1382 1373 1366 1360 1357 1357 1354 1347 1348 1336 1322 1323 1325 1321 1318 1320 1326 1332 1337 1341 1344 1347 1351 1357 1360 1367 1375 1381
1488 1485 1483 1481 1478 1475 1473 1470 1467 1465 1461 1458 1453 1448 1441 1434 1430 1421 1411 1410 1407 1404 1399 1396 1393 1388 1376 1367 1359 1355 1350 1347 1346 1343 1337 1322 1316 1315 1312 1307 1304 1304 1305 1310 1320 1329 1335 1339 1345 1348 1358 1369 1374 1380
1481 1479 1476 1474 1471 1468 1465 1462 1461 1460 1457 1455 1451 1446 1437 1432 1419 1415 1414 1413 1410 1404 1400 1396 1391 1385 1374 1363 1352 1347 1349 1348 1346 1342 1336 1325 1319 1313 1308 1302 1297 1289 1287 1296 1310 1320 1328 1335 1343 1351 1356 1366 1374 1385
1474 1472 1469 1466 1464 1461 1459 1457 1455 1453 1453 1450 1446 1439 1429 1416 1415 1414 1413 1409 1406 1403 1399 1393 1386 1379 1369 1356 1349 1349 1350 1350 1337 1333 1330 1326 1319 1312 1305 1298 1291 1287 1287 1296 1307 1317 1325 1331 1339 1352 1363 1375 1384 1390
1468 1464 1462 1460 1457 1455 1452 1449 1447 1446 1444 1441 1435 1426 1419 1416 1413 1411 1408 1405 1402 1398 1395 1391 1384 1370 1353 1350 1350 1354 1350 1350 1345 1342 1338 1330 1325 1318 1312 1305 1301 1301 1294 1303 1315 1322 1328 1337 1347 1358 1371 1381 1387 1395
1461 1457 1456 1454 1451 1448 1445 1443 1440 1438 1436 1430 1423 1421 1419 1416 1413 1408 1405 1401 1397 1395 1390 1385 1372 1366 1362 1360 1360 1363 1361 1360 1356 1350 1344 1339 1334 1329 1324 1321 1320 1320 1319 1321 1326 1335 1345 1354 1362 1370 1378 1386 1392 1397
1455 1452 1450 1447 1445 1442 1438 1436 1435 1433 1428 1424 1422 1420 1418 1415 1409 1405 1400 1395 1393 1388 1383 1380 1379 1378 1377 1376 1374 1373 1369 1366 1360 1356 1352 1349 1345 1341 1337 1334 1335 1337 1340 1344 1348 1353 1360 1367 1374 1380 1385 1392 1396 1399
1450 1447 1444 1442 1440 1439 1436 1435 1434 1430 1425 1423 1421 1419 1416 1414 1410 1403 1396 1389 1385 1384 1384 1387 1390 1393 1392 1386 1384 1378 1374 1371 1367 1364 1361 1359 1357 1354 1352 1352 1353 1354 1357 1362 1365 1369 1374 1378 1383 1388 1392 1396 1399 1402
1445 1442 1439 1438 1436 1434 1433 1431 1431 1429 1426 1424 1421 1417 1415 1414 1410 1404 1397 1390 1387 1389 1394 1400 1404 1403 1398 1390 1385 1382 1380 1378 1374 1370 1371 1370 1370 1369 1369 1369 1371 1373 1375 1377 1379 1382 1384 1388 1392 1395 1398 1400 1401 1403
1439 1438 1436 1434 1432 1432 1431 1429 1428 1428 1426 1423 1421 1418 1417 1415 1412 1408 1402 1399 1397 1407 1411 1411 1408 1403 1398 1392 1388 1387 1385 1383 1382 1381 1383 1383 1383 1381 1382 1383 1384 1385 1386 1389 1390 1392 1394 1396 1399 1401 1402 1403 1404 1405
1435 1434 1432 1431 1430 1430 1429 1428 1428 1427 1427 1424 1422 1420 1419 1418 1416 1414 1414 1411 1417 1421 1419 1415 1411 1405 1399 1396 1395 1394 1394 1393 1392 1391 1392 1392 1391 1391 1392 1394 1394 1394 1396 1397 1399 1399 1401 1402 1404 1404 1405 1405 1406 1406
1433 1431 1431 1430 1430 1429 1429 1428 1427 1427 1426 1424 1423 1423 1424 1424 1423 1420 1423 1430 1430 1428 1422 1418 1415 1412 1408 1407 1405 1404 1403 1402 1401 1401 1401 1400 1400 1401 1401 1401 1402 1402 1402 1404 1405 1405 1406 1407 1407 1407 1407 1407 1407 1407
1431 1431 1430 1429 1429 1428 1428 1427 1427 1427 1427 1427 1426 1428 1429 1428 1428 1431 1437 1439 1439 1433 1427 1423 1420 1417 1416 1413 1413 1413 1413 1412 1411 1409 1409 1408 1407 1407 1407 1407 1408 1408 1408 1409 1409 1409 1409 1409 1409 1409 1408 1408 1407 1407
1432 1433 1432 1431 1430 1429 1431 1431 1431 1429 1434 1432 1429 1431 1432 1431 1434 1440 1443 1445 1441 1436 1433 1430 1427 1425 1423 1422 1421 1420 1419 1418 1416 1414 1414 1414 1414 1413 1412 1412 1412 1412 1412 1412 1411 1411 1410 1410 1410 1409 1409 1408 1408 1407
1433 1434 1434 1433 1433 1433 1434 1436 1437 1436 1436 1436 1435 1434 1433 1436 1442 1447 1449 1448 1445 1441 1438 1435 1433 1432 1430 1429 1427 1425 1424 1424 1423 1419 1419 1419 1418 1417 1417 1416 1415 1414 1414 1413 1413 1412 1411 1411 1410 1410 1409 1408 1407 1406
1434 1435 1434 1434 1434 1434 1434 1434 1434 1435 1440 1441 1437 1435 1435 1441 1447 1450 1451 1450 1448 1446 1444 1442 1439 1437 1435 1434 1432 1430 1429 1428 1426 1424 1423 1422 1421 1420 1418 1417 1416 1416 1415 1415 1413 1413 1412 1411 1411 1410 1409 1408 1407 1406
1432 1433 1435 1435 1434 1435 1435 1436 1437 1439 1439 1438 1438 1444 1444 1445 1449 1450 1450 1450 1449 1448 1446 1444 1442 1440 1439 1437 1435 1434 1432 1430 1427 1426 1425 1424 1422 1421 1420 1419 1419 1418 1416 1415 1414 1413 1412 1411 1410 1410 1409 1408 1407 1406
1433 1433 1434 1435 1435 1437 1438 1439 1439 1439 1439 1439 1441 1445 1446 1447 1448 1449 1450 1450 1450 1449 1448 1446 1443 1441 1440 1438 1437 1435 1433 1431 1430 1429 1427 1425 1425 1424 1422 1421 1420 1419 1418 1416 1415 1413 1412 1412 1410 1409 1409 1408 1408 1407
1434 1433 1433 1435 1437 1440 1440 1440 1440 1439 1438 1439 1440 1444 1446 1448 1449 1450 1450 1450 1450 1449 1447 1446 1445 1444 1442 1440 1438 1437 1435 1433 1432 1431 1429 1428 1427 1426 1424 1422 1421 1419 1418 1416 1415 1414 1413 1412 1411 1410 1410 1410 1409 1409
1433 1433 1434 1436 1438 1440 1440 1441 1441 1441 1441 1442 1443 1444 1446 1448 1450 1450 1450 1450 1450 1449 1449 1448 1446 1444 1443 1441 1439 1438 1436 1435 1433 1431 1430 1428 1426 1425 1423 1422 1420 1419 1417 1416 1415 1414 1413 1413 1412 1412 1412 1412 1411 1410
1433 1433 1434 1437 1440 1441 1441 1442 1442 1443 1444 1445 1446 1446 1448 1449 1449 1450 1449 1449 1449 1448 1447 1446 1445 1443 1442 1440 1438 1437 1435 1434 1432 1431 1429 1427 1425 1423 1421 1420 1419 1418 1417 1416 1415 1415 1415 1415 1415 1414 1414 1413 1412 1411
1434 1434 1435 1436 1439 1440 1441 1441 1442 1444 1445 1446 1447 1447 1448 1449 1449 1450 1449 1448 1448 1447 1446 1445 1443 1441 1440 1439 1437 1436 1434 1432 1430 1428 1426 1424 1422 1421 1420 1419 1418 1417 1417 1417 1417 1417 1417 1417 1416 1416 1415 1414 1413 1412
Wind_Speed
15 17 17 17 18 19 19 19 20 21 22 23 22 22 22 22 22 21 25 23 23 25 42 40 43 35 30 21 11 15 16 7 6 6 6 10 8 8 13 21 8 12 10 6 6 5 11 8 3 8 6 6 19 18
17 17 18 19 20 21 21 21 22 23 23 25 26 25 25 25 26 24 28 28 27 30 41 39 43 49 51 39 30 15 16 23 5 3 4 4 13 7 11 9 7 12 11 6 12 8 7 21 8 20 10 16 16 19
19 20 21 22 22 23 23 23 24 24 25 26 27 27 29 29 29 28 30 31 34 33 38 39 34 20 23 25 23 38 39 35 30 31 15 7 8 4 7 5 7 13 5 9 3 7 9 16 24 14 17 11 17 18
21 21 22 23 24 25 26 26 26 27 28 28 28 29 30 30 30 30 32 33 35 24 17 39 46 46 41 37 38 40 45 42 38 32 24 11 11 6 9 11 10 14 18 13 10 5 5 10 24 20 18 13 16 17
22 23 23 24 25 26 27 27 29 30 31 31 33 35 35 34 33 32 35 39 39 32 24 41 59 55 40 39 44 43 42 41 32 21 9 11 14 10 10 9 15 16 17 10 10 30 18 15 25 27 24 21 21 24
22 24 25 25 25 25 27 30 31 32 33 33 34 34 33 32 30 32 29 34 17 24 20 11 23 22 27 33 37 40 48 37 34 12 9 21 28 12 6 12 24 34 33 32 24 30 29 29 23 23 26 23 23 25
25 26 26 24 25 28 29 29 30 30 30 31 32 33 34 33 32 34 23 42 29 23 16 9 12 11 19 26 38 39 38 33 32 31 26 29 18 17 10 16 28 36 32 29 30 28 35 29 19 21 25 22 25 26
26 25 23 24 27 28 28 29 28 29 30 33 34 34 35 35 39 41 49 46 38 33 24 5 6 13 24 24 14 22 15 20 20 25 28 18 23 20 12 25 49 48 47 44 39 38 32 38 29 20 25 27 29 31
29 25 24 26 28 29 28 27 29 31 33 34 33 35 38 35 19 19 14 16 18 21 7 6 8 14 13 30 29 20 23 7 12 10 18 11 10 11 23 37 46 44 40 43 41 34 29 27 23 27 32 32 32 33
26 24 27 27 29 28 27 29 30 31 33 34 32 11 8 12 15 34 46 29 10 20 19 10 17 16 14 9 4 4 11 6 5 8 10 8 16 46 47 43 42 40 40 43 38 33 24 25 31 39 37 35 36 35
24 26 27 29 29 28 28 29 29 31 32 21 7 10 33 42 42 9 6 5 8 5 6 6 5 11 28 12 12 12 3 4 4 4 8 4 13 20 40 50 53 50 41 36 41 39 40 41 38 40 36 33 35 37
26 27 28 29 28 27 28 28 28 30 19 20 24 34 23 7 6 5 4 4 2 3 6 4 15 20 12 11 5 6 3 4 5 5 3 4 8 24 28 37 46 51 49 47 44 39 41 39 34 41 39 39 40 39
27 27 26 27 29 29 27 26 27 19 23 23 9 5 5 6 3 4 4 3 5 7 6 17 13 8 7 9 4 3 4 4 1 3 4 5 4 13 25 32 38 39 44 47 47 46 40 38 42 43 41 39 39 39
25 26 26 27 29 29 25 24 19 20 13 5 4 6 5 4 4 2 3 5 11 11 25 28 11 4 6 4 3 3 3 2 2 3 5 2 16 27 26 27 28 29 28 39 37 35 39 42 40 38 42 44 41 38
25 27 27 27 24 20 21 21 20 20 10 7 6 6 5 9 8 12 15 16 13 22 23 16 11 8 4 4 2 1 2 4 3 3 4 17 24 18 13 4 9 11 28 32 36 45 45 46 47 44 43 40 35 33
26 28 28 23 23 25 23 23 23 13 5 7 9 5 7 8 7 14 16 13 22 19 19 14 4 5 5 3 1 2 2 2 5 5 18 18 20 22 23 24 25 27 40 46 45 48 51 52 51 47 41 35 31 26
22 27 24 24 24 23 23 22 14 6 7 5 6 7 9 11 13 13 18 19 21 17 3 4 4 4 5 5 5 4 5 6 10 16 22 22 23 26 34 39 39 41 43 51 54 53 51 47 43 38 35 29 25 20
20 21 21 21 22 21 19 5 4 4 5 5 3 8 15 17 14 18 18 22 15 6 3 3 6 5 4 4 4 4 7 12 20 24 27 29 30 32 37 41 44 46 47 46 46 43 38 35 34 33 29 23 21 17
23 22 20 18 15 14 4 3 4 4 3 5 8 13 10 12 20 21 21 17 3 5 4 5 4 4 4 4 9 7 13 13 19 26 33 34 35 37 38 39 40 40 39 37 36 36 34 32 29 26 22 17 17 14
19 18 15 11 16 4 3 3 3 3 4 5 8 14 5 15 18 23 21 21 16 7 7 4 3 10 11 19 13 19 17 17 23 30 31 34 33 35 36 36 36 34 35 34 32 30 29 27 23 20 16 14 12 11
21 13 13 16 5 5 3 2 2 2 5 5 9 8 5 14 15 21 22 16 14 7 4 9 18 15 19 24 27 29 30 31 29 29 25 27 27 29 29 30 30 30 30 28 28 25 23 22 18 15 12 11 9 7
11 11 12 5 3 3 3 1 2 3 4 6 6 6 5 6 9 12 12 14 7 10 16 18 18 17 26 28 27 27 25 25 25 25 24 26 29 29 28 26 26 27 25 23 21 20 18 16 12 11 9 9 7 6
10 5 2 2 2 2 1 4 2 2 1 6 4 3 3 7 13 10 7 10 9 18 19 19 18 25 27 24 23 24 24 25 26 26 26 26 26 24 22 22 20 20 20 18 15 14 13 11 10 9 8 7 7 6
3 2 1 1 3 1 2 2 2 3 2 3 2 2 3 6 7 6 3 6 16 20 23 23 22 25 26 27 27 24 22 22 21 21 21 19 21 20 18 18 17 17 16 13 11 10 9 8 8 7 7 7 6 6
1 3 3 4 4 3 5 5 6 5 2 3 2 2 2 4 3 3 2 10 19 23 22 21 23 23 23 21 20 20 18 17 17 18 18 16 15 15 15 14 13 13 11 8 9 8 8 7 7 7 6 6 7 7
3 4 3 2 3 2 1 2 2 0 1 3 2 2 2 2 3 3 2 10 12 17 18 19 19 19 20 19 19 18 16 14 12 15 16 13 12 11 11 10 10 11 11 11 10 9 9 9 8 7 7 7 8 8
3 1 2 3 2 1 2 2 2 4 3 2 2 2 2 3 2 2 1 7 8 9 11 12 13 16 17 15 14 13 12 11 11 14 13 12 12 12 11 12 12 11 11 10 10 9 9 8 8 7 7 8 8 9
3 2 3 2 3 3 2 2 2 2 1 4 2 4 2 1 2 2 2 4 6 7 8 11 12 12 12 15 15 13 11 11 10 9 10 10 12 12 11 11 11 10 10 9 9 8 7 6 7 7 7 7 7 7
2 1 2 3 3 4 4 2 2 2 3 1 3 1 2 3 6 6 6 5 5 5 7 9 11 12 11 11 12 13 13 12 9 8 9 9 9 9 9 9 8 8 8 9 9 9 7 7 8 9 7 7 7 7
2 2 3 3 3 2 2 3 3 3 4 5 6 8 9 8 7 6 5 2 1 4 7 10 10 8 10 10 10 11 12 12 12 11 10 10 10 9 8 8 7 8 9 9 8 7 7 7 6 6 6 6 6 6
1 2 3 3 3 3 6 8 8 7 6 9 10 11 8 6 5 4 2 1 1 3 4 5 7 7 8 8 8 7 9 10 10 11 11 10 10 9 9 8 7 9 9 8 7 8 6 5 5 5 5 6 6 7
2 2 3 3 2 6 6 3 2 3 3 3 3 4 3 3 2 3 2 2 2 4 5 7 7 7 8 9 9 9 10 10 10 11 10 9 8 9 8 6 8 8 6 5 6 5 4 5 5 5 6 6 7 8
2 3 4 4 3 3 3 3 2 3 3 2 2 2 2 1 1 1 1 3 4 4 5 8 10 9 9 8 8 8 9 10 12 13 14 13 11 10 9 10 7 4 3 4 3 4 5 5 5 6 6 7 8 8
Wind_Direction
308 307 306 307 307 305 307 311 311 309 310 312 313 313 314 314 313 314 303 299 291 278 279 279 279 273 274 258 263 288 316 292 258 244 249 229 233 234 228 233 190 202 178 196 191 220 253 200 101 191 207 163 176 183
300 299 299 302 306 308 308 307 306 308 308 308 310 313 307 306 303 301 294 297 294 276 272 282 273 277 272 269 269 261 272 270 271 313 299 327 305 291 272 271 225 228 212 190 191 211 225 190 222 222 209 171 177 182
303 305 306 307 307 307 306 305 304 303 303 303 304 304 302 300 297 294 289 289 290 284 284 272 268 284 278 269 273 254 256 251 254 252 272 275 265 323 290 324 320 358 319 241 162 222 222 237 225 237 210 208 187 190
302 304 308 307 307 306 306 306 306 306 307 308 305 299 293 290 288 287 287 284 283 278 272 276 279 271 280 266 262 258 260 260 255 257 264 263 261 249 266 281 283 271 308 310 277 338 308 256 236 233 214 217 199 188
300 301 303 305 305 304 303 307 309 309 307 303 300 298 297 295 294 291 287 282 279 258 265 275 279 274 273 269 264 261 257 247 244 240 231 243 248 243 246 261 261 257 252 275 287 307 281 246 253 223 212 202 193 182
300 300 301 301 303 310 310 307 308 307 305 303 301 299 298 297 298 297 296 295 281 273 257 268 283 277 282 273 262 256 243 242 229 230 232 242 236 224 260 267 267 266 256 254 259 290 292 283 291 223 206 196 187 185
298 298 301 304 309 308 309 310 309 307 305 304 302 299 298 297 291 277 262 276 278 280 277 284 285 260 259 259 253 248 242 232 228 236 239 245 242 206 242 254 258 269 274 268 279 288 302 297 286 220 211 190 185 180
305 299 299 305 307 307 305 305 307 309 309 307 304 302 299 295 289 278 283 287 281 269 260 253 262 263 261 249 235 233 219 220 227 236 243 234 247 236 248 252 256 255 255 264 267 265 262 277 276 219 206 190 177 170
306 297 300 301 305 304 305 308 308 308 308 309 307 306 301 295 276 275 274 271 266 241 254 244 242 272 250 235 242 245 228 228 226 229 235 229 226 224 226 235 244 248 246 252 260 258 254 255 254 213 189 178 175 167
297 296 301 300 304 305 306 306 307 310 309 311 311 303 275 295 302 290 295 280 228 221 230 250 256 260 275 294 258 225 201 206 233 224 183 218 234 238 240 245 251 250 242 241 247 251 234 218 212 195 187 182 176 172
294 298 300 303 303 303 304 305 309 309 314 313 290 266 294 298 296 251 247 222 213 207 215 252 241 276 274 251 253 224 225 204 241 223 190 220 241 245 244 244 246 247 243 244 242 240 234 222 206 184 180 180 179 177
298 300 300 301 304 306 305 305 306 310 305 298 293 296 292 285 255 243 232 234 288 36 311 2 329 304 269 235 232 199 209 183 247 155 218 259 258 260 257 247 246 247 240 237 234 240 227 214 203 191 182 182 175 170
298 301 302 302 303 305 305 305 306 299 308 310 287 270 260 258 263 257 322 330 330 331 322 335 328 293 285 254 234 236 235 233 45 223 244 245 290 280 272 263 250 256 245 225 227 228 221 200 189 189 177 174 165 156
303 302 302 303 304 308 306 301 297 309 309 286 258 265 220 268 238 268 336 304 308 305 326 316 295 266 287 261 244 231 249 55 276 259 240 289 322 315 312 294 276 278 247 207 204 196 174 163 154 155 159 160 147 143
308 307 305 303 311 310 308 305 299 299 292 224 230 239 237 262 311 315 323 309 302 318 312 302 272 235 253 271 245 59 343 261 246 300 322 327 327 330 328 296 258 215 160 154 154 144 139 141 144 138 136 137 143 143
304 302 300 309 314 311 307 303 307 298 224 225 231 268 291 310 315 325 319 306 314 305 306 265 256 268 237 290 123 242 226 308 339 332 347 14 36 52 63 76 85 95 111 119 119 121 124 127 128 131 138 137 134 137
311 298 310 310 308 309 306 308 297 209 234 235 249 274 333 306 296 305 310 299 302 295 238 249 258 2 327 357 25 7 348 350 14 26 37 52 61 72 84 87 88 90 93 105 112 115 119 123 124 122 123 126 130 129
307 308 307 304 308 311 313 271 239 244 255 262 322 319 329 327 316 335 319 315 301 255 259 358 347 18 5 6 344 342 18 47 56 53 52 59 66 72 80 85 92 99 103 106 109 111 114 122 125 119 120 122 123 119
312 315 308 308 309 316 261 245 242 272 287 320 310 339 335 345 356 357 347 349 4 57 67 32 37 15 343 323 313 14 44 55 66 64 71 83 86 88 92 95 97 99 102 106 110 109 110 110 110 113 113 117 114 111
313 308 313 309 315 261 242 238 251 273 294 309 319 336 339 2 0 5 13 28 52 57 42 40 6 322 321 318 28 62 73 75 78 74 65 76 82 87 90 95 97 100 100 99 100 103 104 103 102 102 104 102 98 99
310 316 310 319 299 226 262 260 235 284 302 314 333 354 336 353 5 15 17 33 54 39 16 342 355 11 49 76 85 90 86 87 77 83 88 89 95 96 96 97 99 99 97 96 96 96 94 92 93 92 91 89 82 76
299 307 310 312 260 254 253 315 278 299 315 303 336 12 5 358 353 7 19 29 47 14 354 347 11 39 68 70 76 84 88 91 95 96 99 102 95 94 93 93 94 92 88 86 85 85 84 82 79 77 72 69 63 51
311 308 273 260 258 253 286 338 6 8 79 329 4 31 20 6 360 14 55 24 18 9 26 35 54 73 78 82 86 88 91 94 94 93 91 91 93 93 92 88 85 84 84 79 75 74 73 69 65 57 52 47 41 35
300 256 258 279 349 284 326 39 42 2 42 19 18 47 16 7 18 57 60 26 0 30 49 59 71 80 81 78 73 73 76 82 87 90 89 89 88 85 83 82 79 77 73 72 69 64 59 52 45 38 34 27 22 21
307 359 358 346 14 26 25 3 358 40 36 337 33 36 8 13 60 54 36 360 6 28 39 57 64 63 67 68 69 68 69 69 73 79 75 73 78 82 78 74 70 68 64 54 49 42 38 33 26 22 21 15 17 23
80 23 60 353 332 76 202 27 16 314 37 26 17 340 38 73 68 61 42 354 6 19 30 43 53 61 61 62 62 63 62 63 70 75 73 66 64 63 65 63 59 56 51 47 44 38 34 31 28 24 14 9 9 13
87 296 72 45 8 13 44 53 72 79 65 17 307 14 50 74 89 86 97 14 23 29 40 49 57 60 59 57 57 59 64 69 71 76 72 63 59 56 53 50 45 44 37 30 26 24 21 17 13 11 14 7 3 2
90 71 130 16 82 47 113 56 57 46 1 351 45 37 99 85 103 129 100 55 53 57 54 55 58 60 60 58 53 52 60 58 54 57 57 48 41 40 41 39 34 30 19 15 13 13 9 8 5 13 15 9 12 25
92 46 132 60 85 59 42 44 64 34 342 2 113 110 114 100 131 135 122 102 68 70 68 57 49 44 44 47 42 43 44 44 43 43 44 39 33 31 28 24 19 15 10 2 359 6 18 5 1 11 23 39 45 41
51 50 101 81 85 61 33 56 83 52 86 109 109 114 107 114 121 128 126 117 60 36 39 33 30 29 33 30 28 26 27 30 31 31 27 20 16 14 12 10 9 2 356 0 8 13 8 6 20 44 54 52 42 36
82 108 92 76 100 110 121 113 97 86 89 92 117 120 120 128 124 119 142 140 39 21 6 354 360 6 10 12 17 19 17 15 12 9 4 360 358 357 354 354 351 351 353 1 12 7 16 48 69 65 52 48 42 38
49 67 120 104 128 153 156 164 115 107 114 89 78 98 108 120 135 164 138 102 30 349 348 350 346 352 353 357 359 360 359 357 354 351 348 349 346 345 348 346 343 343 348 8 7 29 68 80 67 58 51 46 39 31
95 81 91 110 119 154 146 145 106 95 79 81 87 101 106 108 132 140 258 311 319 324 343 355 354 349 346 346 346 343 341 341 342 344 346 345 344 343 346 340 344 349 12 12 49 89 87 71 62 54 46 41 36 32